Location: Beetenbrück
(52.8113°N, 9.5946°E)
Time: 22:14:21
(UTC+00:00)

Cosmos 1680 Rocket - Pass Details

Date: 14 April 2026
Orbit: 756 x 776 km, 74.1° (Epoch: 12 May)

Event Time Altitude Azimuth Distance (km) Brightness Sun altitude
Rises 18:58:26 0° 333° (NNW) 3,236 7.7 -6.3°
Reaches altitude 10° 19:00:49 10° 333° (NNW) 2,303 6.9 -6.7°
Maximum altitude 19:06:03 81° 247° (WSW) 775 3.6 -7.4°
Drops below altitude 10° 19:11:13 10° 161° (SSE) 2,280 5.5 -8.1°
Enters shadow 19:13:12 - 160° (SSE) 3,058 6.2 -8.3°
